Hourly Data Report for October 07, 2016

All times are specified in Local Standard Time (LST). Add 1 hour to adjust for Daylight Saving Time where and when it is observed.

POND INLET A
NUNAVUT

72°41'22.000" N
77°58'08.000" W
61.60 m
2403206
71095
YIO

Download Data

Hourly Data (October 2016)
Hourly Data Report for October 7, 2016
Temp Definition
°C
Dew Point Temp Definition
°C
Rel Hum Definition
%
Wind Dir Definition
10's deg

Wind Spd Definition
km/h
Visibility Definition
km
Stn Press Definition
kPa
Hmdx Definition


Wind Chill Definition


Weather Definition


TIME
00:00 Legend Double Dagger -2.6 -3.0 97 16 13 3.2 100.45   -7 Snow
01:00 Legend Double Dagger -2.4 -2.8 97 19 9 16.1 100.47   -6 Snow
02:00 Legend Double Dagger -2.5 -3.1 96 17 13 16.1 100.49   -7 Snow
03:00 Legend Double Dagger -2.4 -3.0 96 17 15 6.4 100.53   -7 Snow
04:00 Legend Double Dagger -2.0 -3.0 93 20 15 16.1 100.57   -7 LegendNANA
05:00 Legend Double Dagger -1.9 -2.7 94 22 17 16.1 100.61   -7 LegendNANA
06:00 Legend Double Dagger -1.7 -3.1 90 25 18 16.1 100.68   -7 LegendNANA
07:00 Legend Double Dagger -2.4 -3.5 92 21 17 16.1 100.74   -8 LegendNANA
08:00 Legend Double Dagger -2.4 -3.5 92 21 17 16.1 100.81   -8 LegendNANA
09:00 Legend Double Dagger -2.2 -3.5 91 22 13 16.1 100.85   -7 LegendNANA
10:00 Legend Double Dagger -2.4 -3.5 92 21 15 16.1 100.91   -7 LegendNANA
11:00 Legend Double Dagger -2.4 -4.0 89 21 15 16.1 100.95   -7 LegendNANA
12:00 Legend Double Dagger -1.8 -4.5 82 25 17 16.1 100.99   -7 LegendNANA
13:00 Legend Double Dagger -2.2 -3.9 88 21 9 16.1 101.05   -6 LegendNANA
14:00 Legend Double Dagger -2.2 -4.1 87 21 15 16.1 101.09   -7 LegendNANA
15:00 Legend Double Dagger -2.4 -4.3 87 20 11 16.1 101.15   -6 LegendNANA
16:00 Legend Double Dagger -2.5 -4.2 88 18 11 16.1 101.19   -7 LegendNANA
17:00 Legend Double Dagger -2.4 -4.4 86 20 13 16.1 101.21   -7 LegendNANA
18:00 Legend Double Dagger -3.3 -4.6 91 16 15 16.1 101.23   -8 LegendNANA
19:00 Legend Double Dagger -3.2 -4.9 88 16 13 16.1 101.25   -8 LegendNANA
20:00 Legend Double Dagger -2.8 -5.0 85 16 11 16.1 101.27   -7 LegendNANA
21:00 Legend Double Dagger -3.0 -4.7 88 17 11 16.1 101.28   -7 LegendNANA
22:00 Legend Double Dagger -3.2 -4.8 89 17 9 16.1 101.26   -7 LegendNANA
23:00 Legend Double Dagger -3.3 -5.2 87 17 9 16.1 101.24   -7 LegendNANA

Notes on Data Quality.

Legend

  • E = Estimated
  • M = Missing
  • NA = Not Available
  • ‡ = Partner data that is not subject to review by the National Climate Archives
Date modified: